Powrót do katalogu

DELTA 1 R/B

AktywnyHEO
NORAD 575·ROCKET BODY·🇺🇸 United States

Wystrzelony May 7, 1963 z Cape Canaveral Space Force Station

Loading…

Następne Przeloty (najbliższe 24 godziny)

TLE

ŚwieżeSource: Space-Track

Epoka: Sep 14, 2026, 01:52 UTC

1 00575U 63013B   26257.07831424 -.00000010  00000-0 -53428-4 0  9990
2 00575  42.7588 191.4590 4004168 323.8048 128.4131  6.40291233481680

Śledź DELTA 1 R/B w czasie rzeczywistym z AllMySat

Download on the App Store